Home   Weather   Oberhausen   Past weeks

Flag for Germany Past Weather in Oberhausen, North Rhine-Westphalia, Germany — Yesterday and Last 2 Weeks

Now
50 °F

Low clouds.


Feels Like: 45 °F
Forecast: 47 / 51 °F
Wind: 15 mph from Southwest

Location: Duesseldorf

Current Time: Feb 20, 2017 at 9:11:22 pm

Latest Report: Feb 20, 2017 at 8:20 pm


Visibility: 5 mi

Pressure: 29.98 "Hg

Humidity: 94%

Dew Point: 48 °F

Location of OberhausenLocation

Past Weather in Oberhausen — Graph

°F

Oberhausen Temperature Yesterday

Maximum temperature yesterday: 46 °F (at 11:50 am)
Minimum temperature yesterday: 34 °F (at 5:50 am)
Average temperature yesterday: 41 °F

High & Low Weather Summary for the Past Weeks

 TemperatureHumidityPressure
High61 °F (Feb 15, 3:50 pm)100% (Feb 6, 9:20 am)30.51 "Hg (Feb 6, 9:20 am)
Low27 °F (Feb 13, 5:50 am)38% (Feb 14, 3:50 pm)29.65 "Hg (Feb 5, 7:20 pm)
Average40 °F78%30.23 "Hg
* Reported Feb 5 7:20 pm — Feb 20 7:50 pm, Oberhausen, Weather by CustomWeather, © 2017

Note: Actual official high and low records may vary slightly from our data, if they occured in-between our weather recording intervals... More about our weather records

Advertising

Oberhausen Weather History for the Previous 24 Hours

Scroll right to see more
 ConditionsComfort  
Time TempWeatherWind HumidityBarometerVisibility
7:50 pm
Mon, Feb 20
50 °FLow clouds.14 mph94%29.98 "Hg5 mi
7:20 pm50 °FDrizzle. Low clouds.15 mph94%29.98 "Hg5 mi
6:50 pm50 °FDrizzle. Mostly cloudy.13 mph94%29.98 "Hg6 mi
6:20 pm50 °FDrizzle. Mostly cloudy.12 mph94%29.98 "Hg3 mi
5:50 pm50 °FDrizzle. Mostly cloudy.12 mph94%29.98 "Hg2 mi
5:20 pm48 °FDrizzle. Mostly cloudy.14 mph100%29.98 "Hg2 mi
4:50 pm50 °FDrizzle. Low clouds.13 mph88%29.98 "Hg6 mi
4:20 pm50 °FDrizzle. Low clouds.15 mph88%29.98 "Hg3 mi
3:50 pm48 °FLow clouds.15 mph94%29.98 "HgN/A
3:20 pm48 °FDrizzle. Low clouds.15 mph94%29.98 "Hg6 mi
2:50 pm48 °FDrizzle. Low clouds.15 mph94%30.01 "Hg5 mi
2:20 pm48 °FDrizzle. More clouds than sun.12 mph94%30.01 "Hg6 mi
1:50 pm48 °FDrizzle. Low clouds.14 mph94%30.01 "HgN/A
1:20 pm48 °FDrizzle. Low clouds.14 mph94%30.01 "HgN/A
12:50 pm48 °FLow clouds.15 mph94%30.04 "HgN/A
12:20 pm48 °FDrizzle. More clouds than sun.14 mph94%30.04 "Hg6 mi
11:50 am48 °FDrizzle. Partly sunny.15 mph87%30.07 "Hg5 mi
11:20 am46 °FDrizzle. Partly sunny.15 mph93%30.07 "Hg5 mi
10:50 am46 °FDrizzle. Partly sunny.16 mph93%30.07 "Hg5 mi
10:20 am46 °FDrizzle. Low clouds.16 mph93%30.07 "Hg2 mi
9:50 am46 °FLow clouds.16 mph93%30.07 "Hg4 mi
9:20 am46 °FPartly sunny.15 mph93%30.07 "Hg4 mi
8:50 am46 °FDrizzle. Partly sunny.14 mph93%30.09 "Hg2 mi
8:20 am45 °FDrizzle. Fog.14 mph100%30.09 "Hg2 mi
7:50 am46 °FPartly sunny.14 mph87%30.09 "Hg6 mi
7:20 am45 °FPassing clouds.14 mph93%30.09 "HgN/A
6:50 am45 °FPassing clouds.15 mph93%30.07 "HgN/A
6:20 am45 °FPassing clouds.13 mph93%30.09 "HgN/A
5:50 am45 °FLight rain. Passing clouds.9 mph93%30.09 "Hg6 mi
5:20 am45 °FPartly cloudy.9 mph87%30.09 "HgN/A
4:50 am45 °FPassing clouds.10 mph93%30.12 "HgN/A
4:20 am45 °FPassing clouds.12 mph93%30.09 "Hg6 mi
3:50 am45 °FPassing clouds.10 mph93%30.12 "Hg4 mi
3:20 am45 °FPassing clouds.9 mph93%30.12 "Hg4 mi
2:50 am45 °FLight rain. Passing clouds.10 mph93%30.12 "Hg4 mi
2:20 am45 °FFog.8 mph93%30.15 "Hg3 mi
1:50 am43 °FFog.7 mph93%30.15 "Hg3 mi
1:20 am43 °FFog.6 mph93%30.15 "Hg3 mi
12:50 am43 °FFog.6 mph93%30.15 "Hg3 mi
12:20 am43 °FFog.7 mph93%30.15 "Hg3 mi
11:50 pm
Sun, Feb 19
43 °FFog.8 mph93%30.15 "Hg3 mi
11:20 pm45 °FPassing clouds.6 mph87%30.15 "Hg4 mi
10:50 pm45 °FPassing clouds.7 mph87%30.15 "Hg4 mi
10:20 pm45 °FPassing clouds.7 mph87%30.15 "Hg4 mi
9:50 pm45 °FPassing clouds.7 mph87%30.18 "Hg4 mi
9:20 pm45 °FPartly cloudy.8 mph87%30.15 "Hg4 mi
Weather by CustomWeather, © 2017

See weather overviewHow to use our weather pages